CST,Max TemperatureF,Mean TemperatureF,Min TemperatureF,Max Dew PointF,MeanDew PointF,Min DewpointF,Max Humidity, Mean Humidity, Min Humidity, Max Sea Level PressureIn, Mean Sea Level PressureIn, Min Sea Level PressureIn, Max VisibilityMiles, Mean VisibilityMiles, Min VisibilityMiles, Max Wind SpeedMPH, Mean Wind SpeedMPH, Max Gust SpeedMPH,PrecipitationIn, CloudCover, Events, WindDirDegrees
2012-11-1,72,57,41,52,44,37,100,68,35,30.10,30.02,29.96,10,10,9,9,2,10,0.00,0,,175
2012-11-2,82,65,47,61,55,48,100,73,45,30.00,29.96,29.94,10,9,2,8,2,10,0.00,0,,221
2012-11-3,81,70,58,65,61,52,97,76,54,30.11,30.02,29.96,10,9,2,20,8,26,0.43,2,Rain-Thunderstorm,238
2012-11-4,61,52,43,52,46,42,93,72,51,30.23,30.15,30.10,10,9,4,20,5,24,0.28,3,Rain-Thunderstorm,31
2012-11-5,56,49,41,49,45,40,100,83,66,30.12,30.03,29.97,10,9,4,10,2,18,0.05,5,Rain-Thunderstorm,74
2012-11-6,60,53,45,48,46,42,100,76,51,30.13,30.06,30.00,10,6,2,9,2,13,0.00,6,,325
2012-11-7,63,52,40,41,38,33,89,62,34,30.19,30.11,30.05,10,10,10,20,7,26,0.00,0,,327
2012-11-8,64,49,34,44,39,34,100,70,40,30.29,30.20,30.14,10,10,10,10,4,14,0.00,0,,145
2012-11-9,73,58,43,48,45,40,96,67,38,30.21,30.14,30.08,10,10,10,16,7,20,0.00,1,,160
2012-11-10,75,64,52,57,54,49,93,72,50,30.19,30.10,30.04,10,10,9,17,10,24,0.00,0,,168
2012-11-11,74,63,52,64,59,50,100,81,61,30.16,30.01,29.92,10,8,1,29,14,37,1.01,7,Rain-Thunderstorm,184
2012-11-12,53,44,34,52,38,27,100,69,38,30.49,30.35,30.14,10,10,10,20,7,24,0.03,3,Rain,326
2012-11-13,53,42,31,34,31,26,92,64,35,30.56,30.47,30.40,10,10,10,12,5,16,0.00,0,,21
2012-11-14,53,43,33,35,32,27,89,62,35,30.45,30.39,30.34,10,10,10,14,6,20,0.00,0,,10
2012-11-15,56,44,31,37,34,30,92,72,51,30.40,30.35,30.30,10,10,2,10,5,15,0.00,0,,352
2012-11-16,58,46,33,36,33,30,89,63,36,30.44,30.39,30.36,10,10,10,14,7,18,0.00,0,,15
2012-11-17,61,48,35,38,35,33,92,64,36,30.46,30.40,30.35,10,10,10,10,3,12,0.00,0,,24
2012-11-18,65,49,33,43,38,32,96,67,37,30.40,30.35,30.30,10,8,2,9,2,13,0.00,0,,94
2012-11-19,68,52,36,49,41,34,100,69,37,30.33,30.26,30.19,10,10,10,8,2,10,0.00,3,,170
2012-11-20,73,61,49,52,48,44,89,65,40,30.21,30.16,30.09,10,7,2,10,3,16,0.00,2,,262
2012-11-21,67,56,44,50,47,42,93,75,56,30.30,30.23,30.18,10,9,6,12,4,15,0.00,0,,355
2012-11-22,71,55,39,51,45,38,100,72,44,30.23,30.16,30.10,10,8,2,13,5,38,0.00,0,,183
2012-11-23,64,53,41,55,40,26,100,64,27,30.38,30.27,30.14,10,8,2,20,10,26,0.40,4,Rain,335
2012-11-24,48,40,31,32,26,21,82,60,37,30.43,30.32,30.19,10,10,9,15,5,18,0.00,0,Snow,27
2012-11-25,62,46,30,38,31,26,92,63,34,30.17,30.07,29.98,10,10,10,15,6,20,0.00,0,,178
2012-11-26,63,54,45,56,48,34,100,76,52,30.24,30.08,29.99,10,10,8,30,9,37,0.01,8,Rain,108
2012-11-27,49,41,32,38,33,30,89,73,56,30.42,30.34,30.24,10,10,10,26,10,35,0.00,1,,14
2012-11-28,56,42,28,37,31,27,100,69,38,30.52,30.43,30.36,10,8,1,9,2,10,0.00,1,,103
2012-11-29,63,46,28,35,32,28,100,65,30,30.38,30.30,30.23,10,10,5,14,4,18,0.00,0,,172
2012-11-30,67,50,33,52,44,32,93,76,58,30.28,30.21,30.15,10,10,9,12,3,13,0.00,3,,153